This demonstration page uses our WeatherBlox Daily Observations layout. Learn more.

Hourly Observations for June 26, 2015

Temp ( °F °C ) Dew Point ( °F °C ) Humidity (%) Winds ( mph kmh ) Pressure ( in mb ) Visibility ( mi km ) Precip ( " mm )
12:15 am 00:15 Clear 68 20.1 60 15.7 76 76 Calm 29.94 1014 10 16.0934 0 0
12:35 am 00:35 Clear 67 19.7 61 16.1 80 80 Calm 29.94 1014 10 16.0934 0 0
12:55 am 00:55 Clear 65 18.5 61 16.1 86 86 ENE 3 6 29.97 1015 10 16.0934 0 0
1:15 am 01:15 Clear 65 18.1 61 16.2 89 89 E 5 7 29.97 1015 10 16.0934 0 0
1:35 am 01:35 Mostly Cloudy 65 18.4 61 16.1 87 87 Calm 29.97 1015 10 16.0934 0 0
1:55 am 01:55 Partly Cloudy 65 18.2 61 16 87 87 N 3 6 29.97 1015 10 16.0934 0 0
2:15 am 02:15 Clear 64 17.6 61 16 90 90 N 3 6 30 1016 10 16.0934 0 0
2:35 am 02:35 Clear 63 17.3 60 15.7 90 90 N 6 9 29.97 1015 10 16.0934 0 0
2:55 am 02:55 Clear 62 16.7 60 15.3 92 92 N 9 15 29.97 1015 10 16.0934 0 0
3:15 am 03:15 Clear 63 17 60 15.4 90 90 N 7 11 29.97 1015 10 16.0934 0 0
3:35 am 03:35 Clear 62 16.9 60 15.3 90 90 N 9 15 30 1016 10 16.0934 0 0
3:55 am 03:55 Clear 62 16.7 59 15.2 91 91 N 6 9 30 1016 10 16.0934 0 0
4:15 am 04:15 Clear 62 16.5 59 15.2 92 92 N 6 9 30 1016 10 16.0934 0 0
4:35 am 04:35 Clear 61 16.1 59 15 93 93 N 3 6 30.03 1017 10 16.0934 0 0
4:55 am 04:55 Clear 60 15.6 58 14.6 94 94 N 5 7 30.03 1017 7 11.26538 0 0
5:15 am 05:15 Clear 60 15.4 58 14.4 94 94 N 5 7 30.03 1017 7 11.26538 0 0
5:35 am 05:35 Clear 61 16 59 15.1 94 94 N 6 9 30.03 1017 7 11.26538 0 0
5:55 am 05:55 Clear 61 16 59 15.1 94 94 NNW 6 9 30.06 1018 7 11.26538 0 0
6:15 am 06:15 Sunny with Mist and Fog 60 15.6 58 14.7 94 94 NW 3 6 30.06 1018 5 8.0467 0 0
6:35 am 06:35 Sunny with Mist and Fog 60 15.5 58 14.6 94 94 NW 3 6 30.06 1018 4 6.43736 0 0
6:55 am 06:55 Sunny with Mist and Fog 61 16.1 60 15.3 95 95 NW 5 7 30.06 1018 4 6.43736 0 0
7:15 am 07:15 Partly Cloudy with Mist and Fog 62 16.7 60 15.8 94 94 NNW 8 13 30.03 1017 5 8.0467 0 0
7:35 am 07:35 Sunny with Mist and Fog 63 17.3 61 16.2 93 93 N 7 11 30.09 1019 5 8.0467 0 0
7:55 am 07:55 Partly Cloudy 64 17.8 62 16.6 93 93 N 8 13 30.06 1018 7 11.26538 0 0
8:15 am 08:15 Partly Cloudy 64 17.9 61 16.2 90 90 N 7 11 30.06 1018 7 11.26538 0 0
8:35 am 08:35 Mostly Cloudy 65 18.3 62 16.7 90 90 N 6 9 30.06 1018 7 11.26538 0 0
8:55 am 08:55 Cloudy 65 18.6 62 16.8 89 89 N 9 15 30.06 1018 7 11.26538 0 0
9:15 am 09:15 Cloudy 66 19 63 17 88 88 N 10 17 30.06 1018 10 16.0934 0 0
9:35 am 09:35 Cloudy 66 19 63 17 88 88 N 13 20 30.06 1018 10 16.0934 0 0
9:55 am 09:55 Cloudy 67 19.3 62 16.4 83 83 N 15 24 30.06 1018 10 16.0934 0 0
10:15 am 10:15 Cloudy 67 19.2 60 15.8 81 81 NNE 13 20 30.06 1018 10 16.0934 0 0
10:35 am 10:35 Cloudy 67 19.3 60 15.7 80 80 NNE 13 20 30.06 1018 10 16.0934 0 0
10:55 am 10:55 Mostly Cloudy 68 20 62 16.4 80 80 NNE 13 20 30.06 1018 10 16.0934 0 0
11:15 am 11:15 Cloudy 68 19.9 61 16.2 79 79 NNE 8 13 30.06 1018 10 16.0934 0 0
11:35 am 11:35 Cloudy 69 20.4 61 16.1 76 76 NNE 12 19 30.06 1018 10 16.0934 0 0
11:55 am 11:55 Mostly Cloudy 70 21.2 61 16.1 73 73 N 7 11 30.03 1017 10 16.0934 0 0
12:15 pm 12:15 Mostly Cloudy 71 21.7 61 16 70 70 N 9 15 30.03 1017 10 16.0934 0 0
12:35 pm 12:35 Mostly Cloudy 72 22.3 61 16.2 69 69 N 13 20 30.03 1017 10 16.0934 0 0
12:55 pm 12:55 Partly Cloudy 73 22.8 59 15 62 62 NNW 13 20 30.03 1017 10 16.0934 0 0
1:15 pm 13:15 Sunny 74 23.6 58 14.6 57 57 N 14 22 30.03 1017 10 16.0934 0 0
1:35 pm 13:35 Partly Cloudy 75 24.1 58 14.7 56 56 N 12 19 30.03 1017 10 16.0934 0 0
1:55 pm 13:55 Partly Cloudy 77 25 58 14.7 53 53 NNW 13 20 30 1016 10 16.0934 0 0
2:15 pm 14:15 Partly Cloudy 77 25 58 14.2 51 51 N 15 24 30 1016 10 16.0934 0 0
2:35 pm 14:35 Partly Cloudy 77 25.2 56 13.5 48 48 N 14 22 30 1016 10 16.0934 0 0
2:55 pm 14:55 Partly Cloudy 79 25.9 56 13.4 46 46 NNE 16 26 30 1016 10 16.0934 0 0
3:15 pm 15:15 Partly Cloudy 79 26.1 56 13.2 45 45 N 14 22 30 1016 10 16.0934 0 0
3:35 pm 15:35 Sunny 79 26 55 12.6 43 43 N 14 22 30 1016 10 16.0934 0 0
3:55 pm 15:55 Partly Cloudy 80 26.7 54 12.4 41 41 N 12 19 30 1016 10 16.0934 0 0
4:15 pm 16:15 Partly Cloudy 80 26.6 53 11.9 40 40 NNE 12 19 30 1016 10 16.0934 0 0
4:35 pm 16:35 Sunny 80 26.4 54 12 41 41 NE 15 24 30 1016 10 16.0934 0 0
4:55 pm 16:55 Partly Cloudy 79 26 55 12.6 43 43 NE 9 15 30 1016 10 16.0934 0 0
5:15 pm 17:15 Partly Cloudy 80 26.8 55 12.7 42 42 NNE 8 13 30 1016 10 16.0934 0 0
5:35 pm 17:35 Partly Cloudy 78 25.3 55 12.6 45 45 NNE 13 20 30 1016 10 16.0934 0 0
5:55 pm 17:55 Partly Cloudy 77 25 56 13.2 48 48 NNE 12 19 30 1016 10 16.0934 0 0
6:15 pm 18:15 Partly Cloudy 76 24.5 56 13.2 49 49 NNE 7 11 30 1016 10 16.0934 0 0
6:35 pm 18:35 Partly Cloudy 75 24.1 56 13.4 51 51 NE 12 19 30.03 1017 10 16.0934 0 0
6:55 pm 18:55 Sunny 77 25.1 55 13 47 47 NE 10 17 30 1016 10 16.0934 0 0
7:15 pm 19:15 Sunny 77 25 56 13.5 49 49 NE 9 15 30 1016 10 16.0934 0 0
7:35 pm 19:35 Sunny 76 24.7 56 13.6 50 50 NE 6 9 30 1016 10 16.0934 0 0
7:55 pm 19:55 Sunny 76 24.2 57 13.9 53 53 NE 6 9 30.03 1017 10 16.0934 0 0
8:15 pm 20:15 Sunny 74 23.6 58 14.2 56 56 NE 7 11 30.03 1017 10 16.0934 0 0
8:35 pm 20:35 Sunny 73 22.6 57 13.7 57 57 NE 3 6 30.03 1017 10 16.0934 0 0
8:55 pm 20:55 Sunny 71 21.6 57 14 62 62 NNE 5 7 30.03 1017 10 16.0934 0 0
9:15 pm 21:15 Clear 68 20.1 56 13.6 66 66 NNE 3 6 30.06 1018 10 16.0934 0 0
9:35 pm 21:35 Clear 66 19 57 13.8 72 72 NNE 5 7 30.06 1018 10 16.0934 0 0
9:55 pm 21:55 Clear 66 18.7 57 14 74 74 NNE 3 6 30.06 1018 10 16.0934 0 0
10:15 pm 22:15 Clear 66 18.7 57 14 74 74 NNE 3 6 30.06 1018 10 16.0934 0 0
10:35 pm 22:35 Clear 65 18.5 57 13.9 75 75 NNE 3 6 30.06 1018 10 16.0934 0 0
10:55 pm 22:55 Clear 64 18 57 13.7 76 76 Calm 30.09 1019 10 16.0934 0 0
11:15 pm 23:15 Clear 64 18 57 13.9 77 77 N 3 6 30.09 1019 10 16.0934 0 0
11:35 pm 23:35 Clear 62 16.8 56 13.5 81 81 N 3 6 30.09 1019 10 16.0934 0 0
11:55 pm 23:55 Clear 63 17 57 13.7 81 81 Calm 30.09 1019 10 16.0934 0 0

Powered by AerisWeather